Wind_Speed
36 39 42 42 38 37 35 35 35 35 30 31 32 35 35 35 34 32 32 29 28 26 24 22 20 18 16 14 12 10 10 9 7 5 3 2 1 3 2 2 2 2 2 2 2
38 40 42 44 43 42 40 35 36 34 34 31 32 33 34 33 34 33 33 30 29 27 25 23 21 20 18 16 14 13 13 9 8 9 7 5 2 3 4 4 1 2 1 5 3
39 41 43 48 44 41 41 40 36 35 33 32 30 30 30 32 33 34 33 32 30 28 26 26 24 22 21 19 18 16 17 12 11 11 10 7 6 4 4 6 5 4 2 4 4
41 42 44 46 47 47 44 39 39 36 34 32 31 31 31 31 31 31 32 30 30 28 27 26 25 24 23 23 21 21 20 17 17 15 13 12 10 8 8 4 7 6 7 5 7
43 45 45 46 48 46 44 44 40 40 36 35 33 32 31 31 29 29 29 29 29 28 26 25 24 24 23 22 24 24 22 21 22 20 17 16 13 11 13 9 9 8 9 8 8
45 47 47 47 48 50 50 47 46 41 39 37 34 35 33 31 32 32 31 29 28 27 27 26 25 24 24 21 24 23 24 27 25 25 22 20 17 13 18 12 10 11 10 9 10
44 48 49 49 49 49 51 50 46 47 39 38 38 37 35 34 32 31 30 27 27 27 27 28 27 26 24 24 24 24 25 26 26 27 26 25 20 18 21 17 14 14 12 10 12
52 48 50 50 50 50 52 51 55 53 42 42 41 39 35 34 32 31 29 28 28 27 28 28 27 27 26 26 27 26 25 26 29 29 29 28 21 24 23 20 19 15 15 13 11
48 44 47 51 51 50 51 53 54 54 52 47 44 44 40 37 34 32 30 28 29 28 29 30 29 28 28 29 28 26 25 28 29 29 29 29 24 27 25 24 21 20 16 15 14
51 45 42 48 52 52 52 53 53 53 51 49 48 46 43 39 36 34 32 30 30 30 30 31 30 30 29 28 27 29 29 29 29 30 31 30 26 28 27 26 23 21 19 18 17
42 49 42 43 48 52 53 54 53 53 51 49 48 46 44 42 39 37 34 32 31 30 30 31 31 30 30 30 30 30 29 29 30 29 30 31 29 28 29 27 25 23 23 21 19
43 43 47 43 46 48 52 53 54 52 51 52 50 47 46 44 43 40 37 36 35 35 33 32 31 32 32 32 31 31 30 30 30 31 30 29 29 26 28 27 26 25 23 22 23
48 46 45 45 43 44 46 48 51 51 51 52 51 50 48 47 46 43 41 40 39 38 37 36 34 33 34 35 33 33 33 33 32 33 31 29 30 27 27 27 26 25 25 24 26
52 51 53 49 48 43 44 45 47 48 51 54 53 52 51 50 49 47 46 45 44 42 41 40 38 36 35 34 36 36 36 36 36 35 34 32 33 27 26 27 26 25 27 29 29
48 45 49 54 54 55 51 49 46 46 48 51 52 51 51 51 49 49 49 49 46 46 45 42 40 39 37 36 37 37 39 39 38 38 38 35 40 25 25 29 27 29 29 29 31
47 49 45 47 49 49 53 51 48 48 50 47 47 51 51 51 51 49 49 50 49 48 48 46 44 42 42 40 39 39 40 41 42 41 41 38 38 40 28 30 30 31 32 33 35
43 50 42 53 48 47 49 51 52 57 56 53 53 47 45 45 44 45 46 49 49 48 48 47 47 45 45 44 44 43 43 42 43 45 42 42 41 43 39 32 35 35 36 35 36
49 44 39 48 52 47 44 43 48 48 49 46 43 45 45 48 47 46 46 46 46 45 46 47 49 48 46 44 42 42 44 44 47 47 45 46 44 41 45 40 37 39 41 41 42
53 49 44 45 42 43 45 51 47 44 44 45 45 47 45 41 43 47 47 47 44 44 45 46 47 44 44 45 43 44 46 43 45 47 50 49 45 43 45 47 45 43 44 45 45
54 51 47 49 46 43 51 51 48 47 47 45 44 46 47 46 45 42 44 46 49 50 45 46 46 45 43 43 44 43 43 45 46 49 50 50 48 43 45 43 48 49 47 48 47
50 54 53 55 53 55 55 45 52 50 49 48 44 48 50 48 47 52 49 46 42 46 49 46 47 47 45 46 43 43 44 45 45 48 50 49 49 44 45 46 48 49 50 49 48
49 52 54 59 59 59 60 59 52 45 51 52 49 44 43 43 45 45 47 47 46 44 45 43 44 44 41 42 42 42 42 43 45 44 45 47 48 45 45 47 50 51 51 52 55
48 50 51 55 59 60 59 57 55 55 53 59 56 49 44 47 47 53 48 48 47 47 48 47 47 45 46 47 48 48 47 46 47 48 48 51 37 36 41 42 41 43 48 51 51
47 47 48 51 56 56 57 56 56 53 57 63 62 55 52 52 57 56 57 55 52 51 54 54 53 53 52 55 58 61 60 57 57 56 55 56 50 40 47 49 50 53 55 54 56
46 46 46 47 50 49 52 52 53 50 53 60 64 60 60 63 65 65 66 67 63 58 59 60 61 63 66 70 70 68 66 66 65 65 68 63 66 48 57 60 61 62 61 62 62
48 46 45 45 45 46 47 48 41 42 44 47 52 50 54 55 56 59 66 70 68 68 70 70 69 67 69 66 62 66 67 69 69 71 71 73 75 68 66 68 73 73 72 73 72
54 53 51 50 48 46 44 42 42 42 40 41 43 45 47 48 50 55 53 54 58 59 58 58 58 59 64 60 58 64 64 65 67 66 63 63 67 62 70 72 74 74 73 76 76
Wind_Direction
200 196 194 193 195 195 193 187 189 188 192 187 180 182 185 185 187 186 189 187 186 185 185 187 189 189 185 200 204 195 197 179 180 195 180 187 182 277 308 328 340 338 354 346 359
204 200 197 194 195 197 191 196 187 191 189 188 186 185 187 187 188 191 194 193 194 194 194 196 199 203 201 210 216 218 220 214 194 209 216 187 217 246 260 269 293 317 41 319 342
208 203 198 198 194 196 196 194 195 194 193 190 190 192 191 192 191 194 195 197 199 201 201 209 207 209 214 217 224 230 229 229 217 228 223 218 216 250 256 257 264 289 313 305 322
210 206 203 198 198 196 199 195 201 198 200 198 196 199 198 198 197 197 198 198 202 204 208 212 214 217 217 223 227 230 235 233 232 230 227 230 228 239 255 250 258 264 281 288 297
207 210 206 204 200 202 200 197 208 204 205 203 204 205 204 205 203 204 204 204 205 208 211 214 219 223 225 226 232 232 237 235 236 238 232 234 238 243 253 249 267 249 259 281 283
209 210 207 207 204 201 204 204 213 210 210 211 208 209 206 207 205 206 207 208 210 212 214 218 220 222 225 227 233 234 234 234 234 240 238 235 238 241 251 255 261 266 260 271 275
213 212 209 210 209 204 203 202 208 213 218 214 213 212 209 208 210 211 211 212 215 217 220 221 223 224 228 226 233 235 237 239 238 238 241 240 238 238 255 257 252 266 269 254 270
214 216 213 211 212 209 209 208 212 214 219 218 215 214 215 214 214 215 217 218 221 221 223 225 225 229 230 231 233 233 236 239 239 239 239 242 236 242 251 253 261 257 271 271 255
208 215 215 214 213 213 211 211 211 214 219 220 218 221 218 217 218 220 221 223 226 227 228 229 230 232 233 235 235 237 236 239 240 242 242 243 237 245 247 253 255 262 259 259 266
211 207 217 217 216 215 214 216 215 217 218 219 220 221 221 222 222 223 225 225 227 229 230 232 234 237 238 239 241 239 239 243 244 242 243 243 239 243 248 252 253 256 259 259 254
215 217 215 220 220 218 217 217 219 220 220 222 223 223 223 226 226 227 228 229 230 233 234 235 237 240 240 240 242 241 242 244 247 245 246 243 239 242 247 248 253 255 255 260 253
220 217 212 218 221 222 221 221 221 223 224 224 224 225 227 228 230 230 231 232 233 235 237 238 239 240 242 246 247 248 247 246 247 248 245 246 244 241 246 250 252 249 255 260 255
217 220 207 211 217 223 225 225 223 223 225 225 226 227 228 231 232 233 235 236 236 237 238 239 241 243 243 245 246 249 250 250 249 250 249 246 246 242 246 248 248 250 251 252 249
223 222 220 208 217 227 221 225 225 225 227 226 226 228 229 230 232 235 237 239 240 240 240 242 243 244 248 248 247 247 249 251 251 251 252 252 253 239 244 250 249 249 251 250 251
227 229 225 221 224 228 225 219 220 220 225 229 230 229 230 233 234 234 237 239 240 241 242 244 243 245 246 247 248 249 250 252 253 254 254 254 262 245 244 249 251 251 251 256 256
221 226 230 230 223 225 219 217 216 219 222 226 228 232 232 233 234 235 237 238 239 239 241 242 243 244 245 245 246 250 251 251 252 254 255 258 260 262 252 252 250 252 256 256 256
221 226 224 230 224 217 216 222 224 225 228 232 232 229 229 229 231 234 237 239 241 242 243 242 243 241 242 243 244 245 248 251 253 254 256 257 257 266 266 258 260 260 259 255 253
226 219 224 224 225 224 221 228 227 227 224 231 228 230 234 236 237 234 232 235 236 237 238 239 239 242 242 245 247 248 248 249 253 254 254 255 259 262 268 266 265 266 266 266 263
234 223 228 223 216 218 226 233 235 232 228 230 229 229 229 229 233 236 237 236 234 236 237 237 239 238 241 242 243 245 248 251 255 257 257 255 257 260 267 273 272 271 270 268 267
228 230 222 223 216 203 211 216 230 228 230 226 233 233 230 232 233 232 231 232 232 233 233 238 241 239 239 242 244 247 248 250 251 256 258 260 258 259 265 270 273 270 271 272 272
224 225 223 220 226 220 214 211 212 224 229 232 230 236 235 231 236 232 235 235 235 231 233 238 240 242 243 244 248 248 250 252 255 254 257 259 258 259 261 264 267 270 274 275 275
227 224 222 223 228 233 223 220 225 228 231 219 222 226 234 234 236 234 231 229 227 229 228 233 237 241 243 246 249 252 254 256 256 259 262 261 254 257 265 265 265 270 275 276 277
227 228 225 225 227 231 236 238 237 234 228 218 220 225 230 234 225 225 216 218 224 227 234 236 239 243 247 252 254 258 259 259 258 259 258 259 253 254 263 267 268 269 268 269 273
224 226 227 229 228 230 232 233 237 235 237 227 228 233 239 238 227 227 231 229 223 227 232 237 242 246 251 256 260 261 260 259 260 260 261 261 262 251 259 263 264 265 267 269 269
220 223 224 226 229 231 233 233 233 235 235 236 239 244 244 242 245 244 247 250 252 247 248 249 250 253 256 258 258 258 261 263 263 264 263 263 264 257 263 264 264 265 265 267 269
225 226 226 229 228 232 232 233 236 234 235 236 237 237 239 241 245 246 249 250 252 253 255 257 257 258 259 257 254 257 259 260 263 266 268 268 267 265 260 262 268 267 267 269 271
232 229 230 231 232 235 236 237 241 243 241 240 239 239 237 239 242 245 248 250 253 254 255 257 258 260 260 258 258 259 260 261 263 261 262 261 269 270 271 270 269 270 270 268 267
Height
5731 5737 5744 5748 5755 5761 5766 5771 5777 5782 5787 5792 5795 5802 5806 5812 5817 5822 5827 5831 5834 5838 5842 5847 5850 5853 5855 5860 5862 5863 5865 5866 5868 5871 5871 5872 5872 5875 5876 5877 5877 5877 5877 5876 5876
5727 5734 5740 5746 5752 5758 5764 5770 5775 5781 5786 5790 5795 5799 5805 5809 5814 5818 5824 5827 5832 5836 5840 5845 5848 5852 5853 5857 5860 5863 5865 5866 5868 5870 5870 5871 5872 5874 5876 5877 5877 5877 5878 5876 5876
5724 5729 5736 5743 5748 5754 5761 5767 5772 5777 5782 5787 5791 5797 5801 5807 5811 5816 5820 5824 5829 5832 5836 5842 5844 5848 5852 5854 5857 5861 5862 5865 5866 5868 5870 5871 5872 5873 5875 5877 5876 5876 5877 5877 5876
5718 5725 5732 5738 5745 5750 5756 5762 5769 5774 5779 5785 5789 5796 5800 5805 5810 5813 5818 5820 5825 5830 5834 5838 5841 5845 5848 5851 5854 5857 5859 5862 5862 5865 5867 5869 5870 5872 5873 5875 5876 5875 5875 5876 5876
5712 5719 5725 5732 5738 5745 5752 5759 5765 5771 5775 5782 5786 5792 5797 5803 5804 5810 5814 5818 5822 5826 5830 5834 5837 5842 5844 5847 5850 5853 5856 5859 5859 5862 5864 5866 5868 5870 5870 5872 5874 5875 5875 5875 5876
5705 5713 5720 5727 5733 5740 5747 5753 5760 5767 5771 5777 5782 5789 5793 5799 5802 5807 5811 5814 5818 5822 5826 5830 5834 5837 5839 5844 5846 5849 5852 5852 5855 5858 5860 5863 5865 5868 5866 5870 5871 5873 5874 5874 5874
5699 5705 5713 5720 5727 5735 5741 5747 5755 5761 5767 5773 5778 5785 5790 5795 5798 5803 5806 5809 5814 5818 5822 5825 5829 5833 5836 5839 5841 5844 5847 5849 5852 5853 5856 5859 5862 5864 5863 5866 5868 5869 5871 5871 5871
5691 5700 5707 5713 5721 5728 5734 5740 5747 5755 5760 5767 5774 5780 5784 5789 5793 5798 5803 5806 5810 5813 5816 5821 5824 5828 5831 5834 5836 5838 5842 5844 5846 5848 5851 5854 5859 5858 5860 5863 5864 5866 5867 5868 5869
5685 5693 5699 5706 5714 5721 5728 5734 5741 5748 5753 5761 5767 5773 5778 5784 5788 5793 5797 5800 5805 5808 5812 5816 5819 5822 5826 5829 5832 5834 5836 5838 5842 5843 5847 5849 5854 5854 5855 5858 5860 5862 5864 5865 5865
5677 5685 5693 5700 5708 5714 5721 5727 5733 5741 5747 5753 5760 5768 5773 5777 5781 5786 5791 5795 5799 5804 5807 5811 5814 5818 5821 5824 5828 5828 5830 5833 5836 5840 5841 5843 5848 5848 5850 5854 5856 5858 5860 5860 5862
5670 5678 5684 5691 5699 5706 5713 5721 5728 5736 5741 5747 5754 5760 5765 5770 5775 5780 5785 5789 5793 5798 5802 5805 5809 5813 5815 5817 5819 5822 5824 5828 5829 5833 5835 5836 5839 5843 5845 5848 5851 5853 5855 5855 5857
5662 5669 5677 5685 5690 5697 5705 5713 5720 5728 5734 5739 5745 5751 5756 5762 5768 5772 5778 5783 5787 5791 5796 5800 5804 5805 5808 5811 5814 5816 5819 5822 5824 5825 5827 5829 5834 5837 5839 5843 5845 5847 5850 5850 5850
5655 5662 5669 5676 5684 5691 5697 5704 5711 5718 5723 5729 5735 5742 5748 5755 5760 5765 5771 5775 5780 5784 5789 5792 5797 5798 5802 5804 5807 5810 5813 5815 5818 5819 5821 5822 5825 5831 5834 5837 5839 5841 5843 5844 5844
5648 5654 5661 5668 5677 5682 5689 5695 5702 5708 5712 5720 5725 5732 5739 5745 5751 5757 5761 5768 5772 5776 5779 5784 5787 5791 5795 5798 5800 5803 5806 5808 5811 5813 5814 5818 5814 5825 5829 5831 5833 5835 5836 5836 5837
5640 5647 5654 5662 5669 5676 5682 5687 5693 5696 5701 5709 5716 5724 5729 5736 5744 5747 5752 5757 5762 5765 5772 5777 5780 5783 5787 5790 5792 5796 5798 5800 5803 5805 5808 5812 5809 5819 5824 5825 5826 5827 5829 5830 5831
5630 5638 5647 5652 5661 5666 5671 5677 5684 5686 5690 5700 5706 5713 5719 5726 5731 5736 5741 5746 5751 5755 5760 5766 5770 5774 5777 5781 5784 5787 5789 5790 5793 5797 5800 5804 5806 5804 5817 5818 5818 5820 5821 5822 5822
5623 5630 5638 5643 5651 5658 5663 5669 5673 5673 5685 5693 5699 5704 5710 5716 5721 5726 5731 5737 5741 5746 5751 5755 5760 5764 5767 5771 5773 5776 5778 5781 5785 5786 5793 5793 5798 5797 5802 5810 5810 5811 5811 5812 5812
5614 5621 5627 5634 5642 5649 5656 5660 5659 5671 5678 5683 5690 5695 5700 5706 5712 5717 5722 5726 5730 5735 5740 5742 5748 5753 5759 5762 5765 5767 5769 5771 5771 5776 5782 5783 5788 5793 5789 5796 5800 5799 5798 5799 5800
5603 5610 5619 5623 5632 5640 5646 5644 5652 5662 5670 5674 5680 5684 5690 5696 5702 5705 5711 5716 5721 5726 5730 5733 5737 5743 5747 5750 5753 5756 5758 5763 5762 5765 5767 5773 5781 5784 5784 5781 5782 5786 5788 5787 5787
5592 5600 5607 5614 5622 5628 5632 5639 5643 5651 5658 5664 5670 5674 5681 5688 5692 5696 5699 5705 5710 5715 5719 5722 5727 5732 5736 5739 5742 5745 5749 5750 5752 5753 5755 5761 5768 5775 5774 5775 5769 5769 5771 5771 5772
5581 5588 5596 5603 5609 5613 5620 5631 5637 5644 5650 5655 5660 5664 5669 5676 5681 5685 5690 5695 5700 5704 5709 5713 5716 5722 5725 5729 5733 5735 5736 5738 5741 5744 5744 5749 5756 5763 5762 5760 5760 5757 5757 5756 5756
5570 5577 5584 5590 5597 5603 5612 5620 5629 5635 5640 5645 5650 5656 5661 5667 5671 5676 5678 5683 5690 5694 5698 5702 5706 5710 5715 5718 5721 5722 5724 5726 5728 5733 5735 5738 5744 5749 5749 5748 5747 5746 5744 5743 5740
5559 5567 5572 5578 5585 5594 5601 5608 5614 5621 5629 5634 5640 5645 5652 5656 5661 5664 5665 5672 5678 5683 5687 5692 5696 5701 5704 5706 5708 5710 5714 5716 5718 5717 5723 5722 5739 5745 5736 5737 5737 5735 5730 5730 5731
5551 5556 5561 5567 5575 5582 5587 5595 5600 5608 5614 5621 5626 5631 5638 5643 5646 5651 5655 5660 5665 5668 5674 5678 5683 5689 5693 5692 5694 5696 5700 5702 5704 5705 5710 5710 5720 5733 5726 5727 5726 5721 5719 5720 5718
5541 5546 5552 5558 5564 5570 5576 5584 5590 5597 5602 5609 5615 5620 5623 5628 5633 5637 5640 5645 5650 5655 5659 5664 5670 5676 5679 5678 5678 5681 5684 5686 5687 5693 5689 5704 5696 5717 5714 5709 5707 5703 5707 5705 5705
5531 5537 5543 5549 5554 5559 5564 5574 5580 5585 5591 5598 5604 5607 5609 5616 5619 5626 5626 5630 5635 5640 5643 5648 5652 5656 5659 5661 5661 5665 5675 5673 5674 5676 5671 5676 5674 5691 5694 5694 5687 5687 5691 5689 5690
5518 5526 5531 5537 5543 5549 5557 5565 5569 5572 5580 5587 5589 5592 5598 5604 5607 5613 5616 5619 5621 5626 5630 5634 5636 5639 5641 5643 5643 5648 5661 5658 5659 5660 5657 5657 5665 5667 5670 5670 5667 5667 5667 5669 5670